Year,Month,Day,Hour,Minute,Value (Times are PST for temperature in C)
2014,08,18,00,00,15.40
2014,08,18,00,01,15.40
2014,08,18,00,02,15.40
2014,08,18,00,03,15.40
2014,08,18,00,04,15.40
2014,08,18,00,05,15.40
2014,08,18,00,06,15.40
2014,08,18,00,07,15.40
2014,08,18,00,08,15.40
2014,08,18,00,09,15.40
2014,08,18,00,10,15.30
2014,08,18,00,11,15.30
2014,08,18,00,12,15.30
2014,08,18,00,13,15.30
2014,08,18,00,14,15.30
2014,08,18,00,15,15.30
2014,08,18,00,16,15.30
2014,08,18,00,17,15.30
2014,08,18,00,18,15.30
2014,08,18,00,19,15.30
2014,08,18,00,20,15.30
2014,08,18,00,21,15.30
2014,08,18,00,22,15.30
2014,08,18,00,23,15.30
2014,08,18,00,24,15.30
2014,08,18,00,25,15.20
2014,08,18,00,26,15.20
2014,08,18,00,27,15.20
2014,08,18,00,28,15.20
2014,08,18,00,29,15.20
2014,08,18,00,30,15.10
2014,08,18,00,31,15.10
2014,08,18,00,32,15.10
2014,08,18,00,33,15.10
2014,08,18,00,34,15.10
2014,08,18,00,35,15.00
2014,08,18,00,36,15.00
2014,08,18,00,37,15.00
2014,08,18,00,38,14.90
2014,08,18,00,39,14.90
2014,08,18,00,40,14.90
2014,08,18,00,41,14.90
2014,08,18,00,42,14.90
2014,08,18,00,43,14.80
2014,08,18,00,44,14.80
2014,08,18,00,45,14.80
2014,08,18,00,46,14.80
2014,08,18,00,47,14.80
2014,08,18,00,48,14.70
2014,08,18,00,49,14.70
2014,08,18,00,50,14.70
2014,08,18,00,51,14.70
2014,08,18,00,52,14.70
2014,08,18,00,53,14.70
2014,08,18,00,54,14.60
2014,08,18,00,55,14.60
2014,08,18,00,56,14.60
2014,08,18,00,57,14.60
2014,08,18,00,58,14.50
2014,08,18,00,59,14.50
2014,08,18,01,00,14.50
2014,08,18,01,01,14.40
2014,08,18,01,02,14.40
2014,08,18,01,03,14.40
2014,08,18,01,04,14.40
2014,08,18,01,05,14.40
2014,08,18,01,06,14.40
2014,08,18,01,07,14.30
2014,08,18,01,08,14.30
2014,08,18,01,09,14.30
2014,08,18,01,10,14.30
2014,08,18,01,11,14.20
2014,08,18,01,12,14.20
2014,08,18,01,13,14.20
2014,08,18,01,14,14.20
2014,08,18,01,15,14.20
2014,08,18,01,16,14.20
2014,08,18,01,17,14.10
2014,08,18,01,18,14.10
2014,08,18,01,19,14.10
2014,08,18,01,20,14.10
2014,08,18,01,21,14.10
2014,08,18,01,22,14.00
2014,08,18,01,23,14.00
2014,08,18,01,24,14.00
2014,08,18,01,25,14.00
2014,08,18,01,26,14.00
2014,08,18,01,27,13.90
2014,08,18,01,28,13.90
2014,08,18,01,29,13.90
2014,08,18,01,30,13.90
2014,08,18,01,31,13.90
2014,08,18,01,32,13.90
2014,08,18,01,33,13.90
2014,08,18,01,34,13.90
2014,08,18,01,35,13.90
2014,08,18,01,36,13.90
2014,08,18,01,37,13.90
2014,08,18,01,38,13.90
2014,08,18,01,39,13.80
2014,08,18,01,40,13.80
2014,08,18,01,41,13.80
2014,08,18,01,42,13.80
2014,08,18,01,43,13.80
2014,08,18,01,44,13.80
2014,08,18,01,45,13.80
2014,08,18,01,46,13.80
2014,08,18,01,47,13.80
2014,08,18,01,48,13.80
2014,08,18,01,49,13.80
2014,08,18,01,50,13.70
2014,08,18,01,51,13.70
2014,08,18,01,52,13.70
2014,08,18,01,53,13.70
2014,08,18,01,54,13.70
2014,08,18,01,55,13.70
2014,08,18,01,56,13.70
2014,08,18,01,57,13.70
2014,08,18,01,58,13.60
2014,08,18,01,59,13.60
2014,08,18,02,00,13.60
2014,08,18,02,01,13.60
2014,08,18,02,02,13.60
2014,08,18,02,03,13.60
2014,08,18,02,04,13.60
2014,08,18,02,05,13.60
2014,08,18,02,06,13.50
2014,08,18,02,07,13.50
2014,08,18,02,08,13.50
2014,08,18,02,09,13.50
2014,08,18,02,10,13.50
2014,08,18,02,11,13.40
2014,08,18,02,12,13.40
2014,08,18,02,13,13.40
2014,08,18,02,14,13.40
2014,08,18,02,15,13.40
2014,08,18,02,16,13.40
2014,08,18,02,17,13.30
2014,08,18,02,18,13.30
2014,08,18,02,19,13.30
2014,08,18,02,20,13.30
2014,08,18,02,21,13.30
2014,08,18,02,22,13.30
2014,08,18,02,23,13.30
2014,08,18,02,24,13.20
2014,08,18,02,25,13.20
2014,08,18,02,26,13.20
2014,08,18,02,27,13.20
2014,08,18,02,28,13.20
2014,08,18,02,29,13.20
2014,08,18,02,30,13.20
2014,08,18,02,31,13.20
2014,08,18,02,32,13.20
2014,08,18,02,33,13.10
2014,08,18,02,34,13.10
2014,08,18,02,35,13.10
2014,08,18,02,36,13.10
2014,08,18,02,37,13.10
2014,08,18,02,38,13.00
2014,08,18,02,39,13.00
2014,08,18,02,40,13.00
2014,08,18,02,41,12.90
2014,08,18,02,42,12.90
2014,08,18,02,43,12.90
2014,08,18,02,44,12.90
2014,08,18,02,45,12.80
2014,08,18,02,46,12.80
2014,08,18,02,47,12.80
2014,08,18,02,48,12.80
2014,08,18,02,49,12.80
2014,08,18,02,50,12.70
2014,08,18,02,51,12.70
2014,08,18,02,52,12.70
2014,08,18,02,53,12.70
2014,08,18,02,54,12.70
2014,08,18,02,55,12.70
2014,08,18,02,56,12.70
2014,08,18,02,57,12.60
2014,08,18,02,58,12.60
2014,08,18,02,59,12.60
2014,08,18,03,00,12.60
2014,08,18,03,01,12.60
2014,08,18,03,02,12.60
2014,08,18,03,03,12.50
2014,08,18,03,04,12.50
2014,08,18,03,05,12.50
2014,08,18,03,06,12.50
2014,08,18,03,07,12.50
2014,08,18,03,08,12.40
2014,08,18,03,09,12.40
2014,08,18,03,10,12.40
2014,08,18,03,11,12.40
2014,08,18,03,12,12.40
2014,08,18,03,13,12.40
2014,08,18,03,14,12.40
2014,08,18,03,15,12.40
2014,08,18,03,16,12.40
2014,08,18,03,17,12.40
2014,08,18,03,18,12.40
2014,08,18,03,19,12.30
2014,08,18,03,20,12.30
2014,08,18,03,21,12.30
2014,08,18,03,22,12.30
2014,08,18,03,23,12.30
2014,08,18,03,24,12.30
2014,08,18,03,25,12.30
2014,08,18,03,26,12.30
2014,08,18,03,27,12.30
2014,08,18,03,28,12.30
2014,08,18,03,29,12.30
2014,08,18,03,30,12.30
2014,08,18,03,31,12.30
2014,08,18,03,32,12.30
2014,08,18,03,33,12.30
2014,08,18,03,34,12.30
2014,08,18,03,35,12.30
2014,08,18,03,36,12.30
2014,08,18,03,37,12.30
2014,08,18,03,38,12.30
2014,08,18,03,39,12.30
2014,08,18,03,40,12.30
2014,08,18,03,41,12.30
2014,08,18,03,42,12.30
2014,08,18,03,43,12.30
2014,08,18,03,44,12.30
2014,08,18,03,45,12.30
2014,08,18,03,46,12.30
2014,08,18,03,47,12.30
2014,08,18,03,48,12.30
2014,08,18,03,49,12.30
2014,08,18,03,50,12.20
2014,08,18,03,51,12.20
2014,08,18,03,52,12.20
2014,08,18,03,53,12.20
2014,08,18,03,54,12.20
2014,08,18,03,55,12.20
2014,08,18,03,56,12.20
2014,08,18,03,57,12.20
2014,08,18,03,58,12.20
2014,08,18,03,59,12.20
2014,08,18,04,00,12.20
2014,08,18,04,01,12.20
2014,08,18,04,02,12.20
2014,08,18,04,03,12.20
2014,08,18,04,04,12.20
2014,08,18,04,05,12.20
2014,08,18,04,06,12.20
2014,08,18,04,07,12.20
2014,08,18,04,08,12.20
2014,08,18,04,09,12.20
2014,08,18,04,10,12.20
2014,08,18,04,11,12.20
2014,08,18,04,12,12.20
2014,08,18,04,13,12.20
2014,08,18,04,14,12.20
2014,08,18,04,15,12.20
2014,08,18,04,16,12.20
2014,08,18,04,17,12.20
2014,08,18,04,18,12.20
2014,08,18,04,19,12.20
2014,08,18,04,20,12.20
2014,08,18,04,21,12.30
2014,08,18,04,22,12.30
2014,08,18,04,23,12.30
2014,08,18,04,24,12.30
2014,08,18,04,25,12.30
2014,08,18,04,26,12.30
2014,08,18,04,27,12.30
2014,08,18,04,28,12.30
2014,08,18,04,29,12.30
2014,08,18,04,30,12.30
2014,08,18,04,31,12.30
2014,08,18,04,32,12.30
2014,08,18,04,33,12.30
2014,08,18,04,34,12.30
2014,08,18,04,35,12.30
2014,08,18,04,36,12.30
2014,08,18,04,37,12.30
2014,08,18,04,38,12.30
2014,08,18,04,39,12.30
2014,08,18,04,40,12.30
2014,08,18,04,41,12.30
2014,08,18,04,42,12.20
2014,08,18,04,43,12.20
2014,08,18,04,44,12.20
2014,08,18,04,45,12.20
2014,08,18,04,46,12.20
2014,08,18,04,47,12.20
2014,08,18,04,48,12.20
2014,08,18,04,49,12.20
2014,08,18,04,50,12.20
2014,08,18,04,51,12.20
2014,08,18,04,52,12.20
2014,08,18,04,53,12.20
2014,08,18,04,54,12.20
2014,08,18,04,55,12.20
2014,08,18,04,56,12.20
2014,08,18,04,57,12.20
2014,08,18,04,58,12.20
2014,08,18,04,59,12.20
2014,08,18,05,00,12.20
2014,08,18,05,01,12.20
2014,08,18,05,02,12.30
2014,08,18,05,03,12.20
2014,08,18,05,04,12.30
2014,08,18,05,05,12.20
2014,08,18,05,06,12.30
2014,08,18,05,07,12.30
2014,08,18,05,08,12.30
2014,08,18,05,09,12.30
2014,08,18,05,10,12.30
2014,08,18,05,11,12.30
2014,08,18,05,12,12.30
2014,08,18,05,13,12.30
2014,08,18,05,14,12.30
2014,08,18,05,15,12.30
2014,08,18,05,16,12.30
2014,08,18,05,17,12.30
2014,08,18,05,18,12.30
2014,08,18,05,19,12.30
2014,08,18,05,20,12.30
2014,08,18,05,21,12.30
2014,08,18,05,22,12.30
2014,08,18,05,23,12.30
2014,08,18,05,24,12.30
2014,08,18,05,25,12.30
2014,08,18,05,26,12.30
2014,08,18,05,27,12.20
2014,08,18,05,28,12.20
2014,08,18,05,29,12.20
2014,08,18,05,30,12.20
2014,08,18,05,31,12.20
2014,08,18,05,32,12.20
2014,08,18,05,33,12.20
2014,08,18,05,34,12.20
2014,08,18,05,35,12.20
2014,08,18,05,36,12.20
2014,08,18,05,37,12.20
2014,08,18,05,38,12.20
2014,08,18,05,39,12.20
2014,08,18,05,40,12.20
2014,08,18,05,41,12.20
2014,08,18,05,42,12.20
2014,08,18,05,43,12.20
2014,08,18,05,44,12.20
2014,08,18,05,45,12.20
2014,08,18,05,46,12.20
2014,08,18,05,47,12.20
2014,08,18,05,48,12.20
2014,08,18,05,49,12.20
2014,08,18,05,50,12.20
2014,08,18,05,51,12.20
2014,08,18,05,52,12.20
2014,08,18,05,53,12.20
2014,08,18,05,54,12.20
2014,08,18,05,55,12.20
2014,08,18,05,56,12.20
2014,08,18,05,57,12.10
2014,08,18,05,58,12.10
2014,08,18,05,59,12.10
2014,08,18,06,00,12.10
2014,08,18,06,01,12.10
2014,08,18,06,02,12.10
2014,08,18,06,03,12.00
2014,08,18,06,04,12.00
2014,08,18,06,05,12.00
2014,08,18,06,06,12.00
2014,08,18,06,07,12.00
2014,08,18,06,08,12.00
2014,08,18,06,09,12.00
2014,08,18,06,10,11.90
2014,08,18,06,11,11.90
2014,08,18,06,12,11.90
2014,08,18,06,13,11.90
2014,08,18,06,14,11.90
2014,08,18,06,15,11.90
2014,08,18,06,16,11.90
2014,08,18,06,17,11.90
2014,08,18,06,18,11.90
2014,08,18,06,19,11.90
2014,08,18,06,20,11.90
2014,08,18,06,21,11.90
2014,08,18,06,22,11.90
2014,08,18,06,23,11.80
2014,08,18,06,24,11.80
2014,08,18,06,25,11.80
2014,08,18,06,26,11.80
2014,08,18,06,27,11.90
2014,08,18,06,28,11.80
2014,08,18,06,29,11.90
2014,08,18,06,30,11.90
2014,08,18,06,31,11.90
2014,08,18,06,32,11.80
2014,08,18,06,33,11.80
2014,08,18,06,34,11.80
2014,08,18,06,35,11.80
2014,08,18,06,36,11.80
2014,08,18,06,37,11.80
2014,08,18,06,38,11.80
2014,08,18,06,39,11.80
2014,08,18,06,40,11.80
2014,08,18,06,41,11.80
2014,08,18,06,42,11.80
2014,08,18,06,43,11.80
2014,08,18,06,44,11.80
2014,08,18,06,45,11.80
2014,08,18,06,46,11.80
2014,08,18,06,47,11.80
2014,08,18,06,48,11.90
2014,08,18,06,49,11.90
2014,08,18,06,50,11.90
2014,08,18,06,51,11.90
2014,08,18,06,52,11.90
2014,08,18,06,53,11.90
2014,08,18,06,54,12.00
2014,08,18,06,55,12.00
2014,08,18,06,56,12.00
2014,08,18,06,57,12.00
2014,08,18,06,58,12.00
2014,08,18,06,59,12.10
2014,08,18,07,00,12.10
2014,08,18,07,01,12.10
2014,08,18,07,02,12.10
2014,08,18,07,03,12.10
2014,08,18,07,04,12.10
2014,08,18,07,05,12.20
2014,08,18,07,06,12.20
2014,08,18,07,07,12.20
2014,08,18,07,08,12.20
2014,08,18,07,09,12.20
2014,08,18,07,10,12.30
2014,08,18,07,11,12.30
2014,08,18,07,12,12.30
2014,08,18,07,13,12.40
2014,08,18,07,14,12.40
2014,08,18,07,15,12.50
2014,08,18,07,16,12.60
2014,08,18,07,17,12.60
2014,08,18,07,18,12.70
2014,08,18,07,19,12.80
2014,08,18,07,20,12.80
2014,08,18,07,21,12.90
2014,08,18,07,22,12.90
2014,08,18,07,23,13.00
2014,08,18,07,24,13.00
2014,08,18,07,25,13.10
2014,08,18,07,26,13.10
2014,08,18,07,27,13.20
2014,08,18,07,28,13.20
2014,08,18,07,29,13.30
2014,08,18,07,30,13.30
2014,08,18,07,31,13.30
2014,08,18,07,32,13.40
2014,08,18,07,33,13.40
2014,08,18,07,34,13.40
2014,08,18,07,35,13.40
2014,08,18,07,36,13.50
2014,08,18,07,37,13.50
2014,08,18,07,38,13.60
2014,08,18,07,39,13.60
2014,08,18,07,40,13.60
2014,08,18,07,41,13.70
2014,08,18,07,42,13.70
2014,08,18,07,43,13.80
2014,08,18,07,44,13.80
2014,08,18,07,45,13.80
2014,08,18,07,46,13.90
2014,08,18,07,47,13.90
2014,08,18,07,48,14.00
2014,08,18,07,49,14.10
2014,08,18,07,50,14.10
2014,08,18,07,51,14.20
2014,08,18,07,52,14.30
2014,08,18,07,53,14.30
2014,08,18,07,54,14.40
2014,08,18,07,55,14.40
2014,08,18,07,56,14.50
2014,08,18,07,57,14.60
2014,08,18,07,58,14.70
2014,08,18,07,59,14.70
2014,08,18,08,00,14.80
2014,08,18,08,01,14.90
2014,08,18,08,02,15.00
2014,08,18,08,03,15.00
2014,08,18,08,04,15.10
2014,08,18,08,05,15.20
2014,08,18,08,06,15.30
2014,08,18,08,07,15.40
2014,08,18,08,08,15.50
2014,08,18,08,09,15.60
2014,08,18,08,10,15.70
2014,08,18,08,11,15.80
2014,08,18,08,12,15.90
2014,08,18,08,13,15.90
2014,08,18,08,14,16.00
2014,08,18,08,15,16.10
2014,08,18,08,16,16.10
2014,08,18,08,17,16.20
2014,08,18,08,18,16.30
2014,08,18,08,19,16.40
2014,08,18,08,20,16.50
2014,08,18,08,21,16.50
2014,08,18,08,22,16.60
2014,08,18,08,23,16.70
2014,08,18,08,24,16.70
2014,08,18,08,25,16.80
2014,08,18,08,26,16.80
2014,08,18,08,27,16.80
2014,08,18,08,28,16.80
2014,08,18,08,29,16.80
2014,08,18,08,30,16.80
2014,08,18,08,31,16.80
2014,08,18,08,32,16.80
2014,08,18,08,33,16.80
2014,08,18,08,34,16.80
2014,08,18,08,35,16.80
2014,08,18,08,36,16.80
2014,08,18,08,37,16.80
2014,08,18,08,38,16.90
2014,08,18,08,39,16.90
2014,08,18,08,40,16.90
2014,08,18,08,41,17.00
2014,08,18,08,42,17.00
2014,08,18,08,43,17.00
2014,08,18,08,44,17.10
2014,08,18,08,45,17.10
2014,08,18,08,46,17.20
2014,08,18,08,47,17.20
2014,08,18,08,48,17.30
2014,08,18,08,49,17.30
2014,08,18,08,50,17.40
2014,08,18,08,51,17.40
2014,08,18,08,52,17.50
2014,08,18,08,53,17.60
2014,08,18,08,54,17.70
2014,08,18,08,55,17.80
2014,08,18,08,56,17.90
2014,08,18,08,57,18.00
2014,08,18,08,58,18.10
2014,08,18,08,59,18.20
2014,08,18,09,00,18.20
2014,08,18,09,01,18.30
2014,08,18,09,02,18.40
2014,08,18,09,03,18.40
2014,08,18,09,04,18.50
2014,08,18,09,05,18.50
2014,08,18,09,06,18.50
2014,08,18,09,07,18.50
2014,08,18,09,08,18.50
2014,08,18,09,09,18.40
2014,08,18,09,10,18.40
2014,08,18,09,11,18.50
2014,08,18,09,12,18.50
2014,08,18,09,13,18.50
2014,08,18,09,14,18.50
2014,08,18,09,15,18.40
2014,08,18,09,16,18.40
2014,08,18,09,17,18.30
2014,08,18,09,18,18.30
2014,08,18,09,19,18.30
2014,08,18,09,20,18.30
2014,08,18,09,21,18.30
2014,08,18,09,22,18.30
2014,08,18,09,23,18.30
2014,08,18,09,24,18.30
2014,08,18,09,25,18.20
2014,08,18,09,26,18.20
2014,08,18,09,27,18.20
2014,08,18,09,28,18.20
2014,08,18,09,29,18.20
2014,08,18,09,30,18.20
2014,08,18,09,31,18.10
2014,08,18,09,32,18.10
2014,08,18,09,33,18.10
2014,08,18,09,34,18.10
2014,08,18,09,35,18.10
2014,08,18,09,36,18.10
2014,08,18,09,37,18.10
2014,08,18,09,38,18.10
2014,08,18,09,39,18.10
2014,08,18,09,40,18.20
2014,08,18,09,41,18.20
2014,08,18,09,42,18.20
2014,08,18,09,43,18.20
2014,08,18,09,44,18.30
2014,08,18,09,45,18.30
2014,08,18,09,46,18.30
2014,08,18,09,47,18.40
2014,08,18,09,48,18.40
2014,08,18,09,49,18.40
2014,08,18,09,50,18.50
2014,08,18,09,51,18.50
2014,08,18,09,52,18.60
2014,08,18,09,53,18.60
2014,08,18,09,54,18.70
2014,08,18,09,55,18.70
2014,08,18,09,56,18.70
2014,08,18,09,57,18.80
2014,08,18,09,58,18.80
2014,08,18,09,59,18.80
2014,08,18,10,00,18.80
2014,08,18,10,01,18.90
2014,08,18,10,02,18.90
2014,08,18,10,03,18.90
2014,08,18,10,04,18.90
2014,08,18,10,05,18.90
2014,08,18,10,06,18.90
2014,08,18,10,07,18.80
2014,08,18,10,08,18.80
2014,08,18,10,09,18.80
2014,08,18,10,10,18.70
2014,08,18,10,11,18.70
2014,08,18,10,12,18.60
2014,08,18,10,13,18.60
2014,08,18,10,14,18.50
2014,08,18,10,15,18.50
2014,08,18,10,16,18.50
2014,08,18,10,17,18.50
2014,08,18,10,18,18.50
2014,08,18,10,19,18.50
2014,08,18,10,20,18.50
2014,08,18,10,21,18.50
2014,08,18,10,22,18.60
2014,08,18,10,23,18.60
2014,08,18,10,24,18.70
2014,08,18,10,25,18.70
2014,08,18,10,26,18.80
2014,08,18,10,27,18.80
2014,08,18,10,28,18.80
2014,08,18,10,29,18.90
2014,08,18,10,30,18.90
2014,08,18,10,31,18.90
2014,08,18,10,32,19.00
2014,08,18,10,33,19.10
2014,08,18,10,34,19.20
2014,08,18,10,35,19.20
2014,08,18,10,36,19.30
2014,08,18,10,37,19.40
2014,08,18,10,38,19.50
2014,08,18,10,39,19.50
2014,08,18,10,40,19.70
2014,08,18,10,41,19.80
2014,08,18,10,42,19.90
2014,08,18,10,43,20.00
2014,08,18,10,44,20.10
2014,08,18,10,45,20.20
2014,08,18,10,46,20.30
2014,08,18,10,47,20.30
2014,08,18,10,48,20.40
2014,08,18,10,49,20.50
2014,08,18,10,50,20.60
2014,08,18,10,51,20.70
2014,08,18,10,52,20.70
2014,08,18,10,53,20.80
2014,08,18,10,54,20.90
2014,08,18,10,55,21.00
2014,08,18,10,56,21.10
2014,08,18,10,57,21.20
2014,08,18,10,58,21.30
2014,08,18,10,59,21.30
2014,08,18,11,00,21.40
2014,08,18,11,01,21.40
2014,08,18,11,02,21.50
2014,08,18,11,03,21.50
2014,08,18,11,04,21.40
2014,08,18,11,05,21.40
2014,08,18,11,06,21.40
2014,08,18,11,07,21.40
2014,08,18,11,08,21.40
2014,08,18,11,09,21.40
2014,08,18,11,10,21.30
2014,08,18,11,11,21.20
2014,08,18,11,12,21.20
2014,08,18,11,13,21.10
2014,08,18,11,14,21.10
2014,08,18,11,15,21.00
2014,08,18,11,16,20.90
2014,08,18,11,17,20.90
2014,08,18,11,18,21.00
2014,08,18,11,19,21.00
2014,08,18,11,20,21.10
2014,08,18,11,21,21.20
2014,08,18,11,22,21.30
2014,08,18,11,23,21.40
2014,08,18,11,24,21.40
2014,08,18,11,25,21.40
2014,08,18,11,26,21.50
2014,08,18,11,27,21.50
2014,08,18,11,28,21.60
2014,08,18,11,29,21.60
2014,08,18,11,30,21.60
2014,08,18,11,31,21.50
2014,08,18,11,32,21.30
2014,08,18,11,33,21.30
2014,08,18,11,34,21.30
2014,08,18,11,35,21.30
2014,08,18,11,36,21.30
2014,08,18,11,37,21.40
2014,08,18,11,38,21.50
2014,08,18,11,39,21.60
2014,08,18,11,40,21.70
2014,08,18,11,41,21.70
2014,08,18,11,42,21.80
2014,08,18,11,43,21.80
2014,08,18,11,44,21.90
2014,08,18,11,45,21.90
2014,08,18,11,46,22.00
2014,08,18,11,47,22.10
2014,08,18,11,48,22.10
2014,08,18,11,49,22.20
2014,08,18,11,50,22.20
2014,08,18,11,51,22.30
2014,08,18,11,52,22.30
2014,08,18,11,53,22.20
2014,08,18,11,54,22.20
2014,08,18,11,55,22.30
2014,08,18,11,56,22.30
2014,08,18,11,57,22.30
2014,08,18,11,58,22.40
2014,08,18,11,59,22.50
2014,08,18,12,00,22.60
2014,08,18,12,01,22.60
2014,08,18,12,02,22.70
2014,08,18,12,03,22.70
2014,08,18,12,04,22.70
2014,08,18,12,05,22.60
2014,08,18,12,06,22.60
2014,08,18,12,07,22.70
2014,08,18,12,08,22.70
2014,08,18,12,09,22.80
2014,08,18,12,10,22.80
2014,08,18,12,11,22.80
2014,08,18,12,12,22.80
2014,08,18,12,13,22.80
2014,08,18,12,14,22.80
2014,08,18,12,15,22.80
2014,08,18,12,16,22.80
2014,08,18,12,17,22.80
2014,08,18,12,18,22.80
2014,08,18,12,19,22.90
2014,08,18,12,20,22.90
2014,08,18,12,21,23.00
2014,08,18,12,22,23.10
2014,08,18,12,23,23.10
2014,08,18,12,24,23.20
2014,08,18,12,25,23.20
2014,08,18,12,26,23.20
2014,08,18,12,27,23.20
2014,08,18,12,28,23.30
2014,08,18,12,29,23.30
2014,08,18,12,30,23.40
2014,08,18,12,31,23.40
2014,08,18,12,32,23.40
2014,08,18,12,33,23.40
2014,08,18,12,34,23.50
2014,08,18,12,35,23.50
2014,08,18,12,36,23.50
2014,08,18,12,37,23.50
2014,08,18,12,38,23.50
2014,08,18,12,39,23.50
2014,08,18,12,40,23.50
2014,08,18,12,41,23.60
2014,08,18,12,42,23.60
2014,08,18,12,43,23.60
2014,08,18,12,44,23.60
2014,08,18,12,45,23.60
2014,08,18,12,46,23.60
2014,08,18,12,47,23.60
2014,08,18,12,48,23.60
2014,08,18,12,49,23.60
2014,08,18,12,50,23.60
2014,08,18,12,51,23.70
2014,08,18,12,52,23.70
2014,08,18,12,53,23.70
2014,08,18,12,54,23.70
2014,08,18,12,55,23.70
2014,08,18,12,56,23.70
2014,08,18,12,57,23.70
2014,08,18,12,58,23.70
2014,08,18,12,59,23.80
2014,08,18,13,00,23.80
2014,08,18,13,01,23.80
2014,08,18,13,02,23.90
2014,08,18,13,03,23.90
2014,08,18,13,04,23.80
2014,08,18,13,05,23.80
2014,08,18,13,06,23.70
2014,08,18,13,07,23.60
2014,08,18,13,08,23.60
2014,08,18,13,09,23.50
2014,08,18,13,10,23.40
2014,08,18,13,11,23.40
2014,08,18,13,12,23.40
2014,08,18,13,13,23.40
2014,08,18,13,14,23.30
2014,08,18,13,15,23.30
2014,08,18,13,16,23.30
2014,08,18,13,17,23.20
2014,08,18,13,18,23.20
2014,08,18,13,19,23.20
2014,08,18,13,20,23.20
2014,08,18,13,21,23.10
2014,08,18,13,22,23.00
2014,08,18,13,23,22.90
2014,08,18,13,24,22.90
2014,08,18,13,25,22.80
2014,08,18,13,26,22.70
2014,08,18,13,27,22.70
2014,08,18,13,28,22.60
2014,08,18,13,29,22.50
2014,08,18,13,30,22.50
2014,08,18,13,31,22.40
2014,08,18,13,32,22.40
2014,08,18,13,33,22.40
2014,08,18,13,34,22.40
2014,08,18,13,35,22.40
2014,08,18,13,36,22.30
2014,08,18,13,37,22.40
2014,08,18,13,38,22.40
2014,08,18,13,39,22.40
2014,08,18,13,40,22.50
2014,08,18,13,41,22.50
2014,08,18,13,42,22.70
2014,08,18,13,43,22.70
2014,08,18,13,44,22.80
2014,08,18,13,45,22.90
2014,08,18,13,46,22.90
2014,08,18,13,47,23.00
2014,08,18,13,48,23.10
2014,08,18,13,49,23.10
2014,08,18,13,50,23.20
2014,08,18,13,51,23.20
2014,08,18,13,52,23.30
2014,08,18,13,53,23.40
2014,08,18,13,54,23.50
2014,08,18,13,55,23.50
2014,08,18,13,56,23.60
2014,08,18,13,57,23.70
2014,08,18,13,58,23.70
2014,08,18,13,59,23.70
2014,08,18,14,00,23.70
2014,08,18,14,01,23.70
2014,08,18,14,02,23.80
2014,08,18,14,03,23.80
2014,08,18,14,04,23.90
2014,08,18,14,05,23.90
2014,08,18,14,06,23.90
2014,08,18,14,07,24.00
2014,08,18,14,08,24.00
2014,08,18,14,09,24.10
2014,08,18,14,10,24.10
2014,08,18,14,11,24.10
2014,08,18,14,12,24.20
2014,08,18,14,13,24.20
2014,08,18,14,14,24.30
2014,08,18,14,15,24.40
2014,08,18,14,16,24.50
2014,08,18,14,17,24.60
2014,08,18,14,18,24.60
2014,08,18,14,19,24.70
2014,08,18,14,20,24.70
2014,08,18,14,21,24.60
2014,08,18,14,22,24.60
2014,08,18,14,23,24.50
2014,08,18,14,24,24.50
2014,08,18,14,25,24.40
2014,08,18,14,26,24.40
2014,08,18,14,27,24.30
2014,08,18,14,28,24.30
2014,08,18,14,29,24.20
2014,08,18,14,30,24.20
2014,08,18,14,31,24.10
2014,08,18,14,32,24.00
2014,08,18,14,33,24.00
2014,08,18,14,34,24.00
2014,08,18,14,35,24.00
2014,08,18,14,36,23.90
2014,08,18,14,37,23.90
2014,08,18,14,38,23.90
2014,08,18,14,39,23.90
2014,08,18,14,40,23.80
2014,08,18,14,41,23.80
2014,08,18,14,42,23.80
2014,08,18,14,43,23.80
2014,08,18,14,44,23.70
2014,08,18,14,45,23.80
2014,08,18,14,46,23.80
2014,08,18,14,47,23.80
2014,08,18,14,48,23.80
2014,08,18,14,49,23.80
2014,08,18,14,50,23.80
2014,08,18,14,51,23.80
2014,08,18,14,52,23.70
2014,08,18,14,53,23.70
2014,08,18,14,54,23.60
2014,08,18,14,55,23.60
2014,08,18,14,56,23.50
2014,08,18,14,57,23.50
2014,08,18,14,58,23.50
2014,08,18,14,59,23.40
2014,08,18,15,00,23.40
2014,08,18,15,01,23.40
2014,08,18,15,02,23.50
2014,08,18,15,03,23.50
2014,08,18,15,04,23.50
2014,08,18,15,05,23.60
2014,08,18,15,06,23.60
2014,08,18,15,07,23.60
2014,08,18,15,08,23.60
2014,08,18,15,09,23.60
2014,08,18,15,10,23.60
2014,08,18,15,11,23.60
2014,08,18,15,12,23.60
2014,08,18,15,13,23.60
2014,08,18,15,14,23.60
2014,08,18,15,15,23.60
2014,08,18,15,16,23.60
2014,08,18,15,17,23.60
2014,08,18,15,18,23.50
2014,08,18,15,19,23.40
2014,08,18,15,20,23.30
2014,08,18,15,21,23.30
2014,08,18,15,22,23.20
2014,08,18,15,23,23.20
2014,08,18,15,24,23.10
2014,08,18,15,25,23.10
2014,08,18,15,26,23.10
2014,08,18,15,27,23.10
2014,08,18,15,28,23.00
2014,08,18,15,29,22.80
2014,08,18,15,30,22.50
2014,08,18,15,31,22.20
2014,08,18,15,32,21.90
2014,08,18,15,33,21.70
2014,08,18,15,34,21.50
2014,08,18,15,35,21.40
2014,08,18,15,36,21.20
2014,08,18,15,37,21.10
2014,08,18,15,38,20.90
2014,08,18,15,39,20.80
2014,08,18,15,40,20.70
2014,08,18,15,41,20.60
2014,08,18,15,42,20.60
2014,08,18,15,43,20.50
2014,08,18,15,44,20.50
2014,08,18,15,45,20.40
2014,08,18,15,46,20.40
2014,08,18,15,47,20.40
2014,08,18,15,48,20.40
2014,08,18,15,49,20.30
2014,08,18,15,50,20.30
2014,08,18,15,51,20.30
2014,08,18,15,52,20.30
2014,08,18,15,53,20.20
2014,08,18,15,54,20.20
2014,08,18,15,55,20.20
2014,08,18,15,56,20.10
2014,08,18,15,57,20.10
2014,08,18,15,58,20.00
2014,08,18,15,59,19.90
2014,08,18,16,00,19.80
2014,08,18,16,01,19.80
2014,08,18,16,02,19.70
2014,08,18,16,03,19.70
2014,08,18,16,04,19.70
2014,08,18,16,05,19.70
2014,08,18,16,06,19.60
2014,08,18,16,07,19.60
2014,08,18,16,08,19.60
2014,08,18,16,09,19.60
2014,08,18,16,10,19.60
2014,08,18,16,11,19.60
2014,08,18,16,12,19.70
2014,08,18,16,13,19.70
2014,08,18,16,14,19.70
2014,08,18,16,15,19.70
2014,08,18,16,16,19.70
2014,08,18,16,17,19.80
2014,08,18,16,18,19.80
2014,08,18,16,19,19.80
2014,08,18,16,20,19.80
2014,08,18,16,21,19.80
2014,08,18,16,22,19.80
2014,08,18,16,23,19.80
2014,08,18,16,24,19.90
2014,08,18,16,25,19.90
2014,08,18,16,26,19.90
2014,08,18,16,27,19.90
2014,08,18,16,28,19.90
2014,08,18,16,29,19.90
2014,08,18,16,30,20.00
2014,08,18,16,31,20.00
2014,08,18,16,32,20.00
2014,08,18,16,33,20.00
2014,08,18,16,34,20.00
2014,08,18,16,35,20.00
2014,08,18,16,36,20.00
2014,08,18,16,37,20.10
2014,08,18,16,38,20.10
2014,08,18,16,39,20.10
2014,08,18,16,40,20.10
2014,08,18,16,41,20.10
2014,08,18,16,42,20.10
2014,08,18,16,43,20.10
2014,08,18,16,44,20.10
2014,08,18,16,45,20.10
2014,08,18,16,46,20.20
2014,08,18,16,47,20.20
2014,08,18,16,48,20.20
2014,08,18,16,49,20.20
2014,08,18,16,50,20.20
2014,08,18,16,51,20.20
2014,08,18,16,52,20.30
2014,08,18,16,53,20.30
2014,08,18,16,54,20.30
2014,08,18,16,55,20.40
2014,08,18,16,56,20.40
2014,08,18,16,57,20.40
2014,08,18,16,58,20.40
2014,08,18,16,59,20.50
2014,08,18,17,00,20.50
2014,08,18,17,01,20.60
2014,08,18,17,02,20.60
2014,08,18,17,03,20.60
2014,08,18,17,04,20.70
2014,08,18,17,05,20.70
2014,08,18,17,06,20.70
2014,08,18,17,07,20.80
2014,08,18,17,08,20.80
2014,08,18,17,09,20.80
2014,08,18,17,10,20.80
2014,08,18,17,11,20.80
2014,08,18,17,12,20.80
2014,08,18,17,13,20.80
2014,08,18,17,14,20.80
2014,08,18,17,15,20.80
2014,08,18,17,16,20.80
2014,08,18,17,17,20.80
2014,08,18,17,18,20.70
2014,08,18,17,19,20.70